Location: B?lite?ti
(46.2833°N, 22.7333°E)
Time: 04:01:54
(UTC+00:00)

COSMOS 2455 - Pass Details

Date: 24 January 2021
Orbit: 901 x 908 km, 67.1° (Epoch: 26 February)

Event Time Altitude Azimuth Distance (km) Brightness Sun altitude
Rises 16:12:04 0° 219° (SW) 3,521 7.0 -8.8°
Reaches altitude 10° 16:14:35 10° 221° (SW) 2,584 6.3 -9.2°
Maximum altitude 16:20:33 70° 305° (NW) 968 3.2 -10.2°
Drops below altitude 10° 16:26:35 10° 29° (NNE) 2,602 4.8 -11.2°
Enters shadow 16:27:57 - 31° (NNE) 3,103 5.2 -11.4°
